Fairfield, PA

5:10 PM EST on February 24, 2017 (GMT -0500)
Fountain Dale

Weather History for KRYT - November, 2011

Change the Weather History Date:

Wednesday, November 30, 2011

  Actual Average (KHGR) Record (KHGR)
Temperature  
Mean Temperature 44 °F -  
Max Temperature 48 °F 46 °F 69 °F (1998)
Min Temperature 39 °F 32 °F 20 °F (2013)
Degree Days  
Heating Degree Days 22    
Moisture  
Dew Point 29 °F    
Average Humidity 58    
Maximum Humidity 76    
Minimum Humidity 49    
Precipitation  
Precipitation 0.01 in - - ()
Sea Level Pressure  
Sea Level Pressure 29.80 in    
Wind  
Wind Speed 8 mph (SW)    
Max Wind Speed 13 mph    
Max Gust Speed 18 mph    
Visibility 10 miles    
Events Rain    
Averages and records for this station are not official NWS values.
T = Trace of Precipitation, MM = Missing Value Source: NWS Daily Summary

Daily Weather History Graph

Daily Weather History Graph

Search for Another Location

Airport or City:

Trip Planner

Search our weather history database for the weather conditions in past years. The results will help you decide how hot, cold, wet, or windy it might be!

Date:

Astronomy

Nov. 30, 2011 Rise Set
Actual Time 7:10 AM EST 4:46 PM EST
Civil Twilight 6:40 AM EST 5:15 PM EST
Nautical Twilight 6:07 AM EST 5:49 PM EST
Astronomical Twilight 5:34 AM EST 6:21 PM EST
Moon 11:27 AM EST (11/30) 10:40 PM EST (11/30)
Length of Visible Light 10h 35m
Length of Day
9h 35m
Waxing Crescent, 33% of the Moon is Illuminated
Nov 30
Waxing Crescent
Dec 2
First Quarter
Dec 10
Full
Dec 17
Last Quarter
Dec 24
New

Hourly Weather History & Observations

Time (EST) Temp. Windchill Dew Point Humidity Pressure Visibility Wind Dir Wind Speed Gust Speed Precip Events Conditions
12:15 AM 48.2 °F - 37.4 °F 66% 29.60 in 10.0 mi WSW 12.7 mph 18.4 mph 0.00 in   Overcast
12:53 AM 43.0 °F 38.2 °F 35.1 °F 74% 29.64 in 9.0 mi SW 8.1 mph 16.1 mph 0.00 in Rain Light Rain
1:00 AM 42.8 °F 38.0 °F 35.6 °F 76% 29.63 in 10.0 mi SW 8.1 mph 16.1 mph 0.00 in Rain Light Rain
1:53 AM 43.0 °F 37.7 °F 34.0 °F 71% 29.65 in 10.0 mi SW 9.2 mph - 0.01 in   Overcast
2:53 AM 42.1 °F 36.1 °F 33.1 °F 70% 29.65 in 10.0 mi SW 10.4 mph - N/A   Partly Cloudy
3:53 AM 43.0 °F 39.5 °F 30.9 °F 62% 29.66 in 10.0 mi SSW 5.8 mph - N/A   Mostly Cloudy
4:53 AM 42.1 °F 38.4 °F 30.0 °F 62% 29.68 in 10.0 mi SSW 5.8 mph - N/A   Clear
5:53 AM 42.1 °F 37.7 °F 28.0 °F 58% 29.70 in 10.0 mi SW 6.9 mph - N/A   Mostly Cloudy
6:53 AM 43.0 °F 39.5 °F 30.0 °F 60% 29.71 in 10.0 mi SSW 5.8 mph - N/A   Overcast
7:53 AM 43.0 °F 39.5 °F 28.0 °F 56% 29.70 in 10.0 mi SW 5.8 mph - N/A   Partly Cloudy
8:53 AM 44.1 °F 40.1 °F 28.9 °F 55% 29.72 in 10.0 mi SW 6.9 mph - N/A   Mostly Cloudy
9:53 AM 43.0 °F 38.8 °F 28.9 °F 58% 29.75 in 10.0 mi SW 6.9 mph - N/A   Overcast
10:53 AM 44.1 °F 39.5 °F 28.0 °F 53% 29.77 in 10.0 mi WSW 8.1 mph - N/A   Overcast
11:53 AM 44.1 °F 39.5 °F 28.9 °F 55% 29.78 in 10.0 mi WSW 8.1 mph - N/A   Overcast
12:53 PM 44.1 °F 39.5 °F 28.0 °F 53% 29.78 in 10.0 mi West 8.1 mph 18.4 mph N/A   Overcast
1:53 PM 44.1 °F 40.1 °F 28.0 °F 53% 29.80 in 10.0 mi Variable 6.9 mph - N/A   Overcast
2:53 PM 43.0 °F 40.3 °F 27.0 °F 53% 29.82 in 10.0 mi Variable 4.6 mph - N/A   Overcast
3:53 PM 45.0 °F 39.7 °F 27.0 °F 49% 29.86 in 10.0 mi WSW 10.4 mph 18.4 mph N/A   Overcast
4:53 PM 44.1 °F 39.5 °F 26.1 °F 49% 29.89 in 10.0 mi WSW 8.1 mph - N/A   Overcast
5:53 PM 42.1 °F 37.7 °F 27.0 °F 55% 29.92 in 10.0 mi Variable 6.9 mph - N/A   Mostly Cloudy
6:53 PM 42.1 °F 36.6 °F 27.0 °F 55% 29.96 in 10.0 mi WNW 9.2 mph - N/A   Overcast
7:53 PM 41.0 °F 37.1 °F 25.0 °F 53% 29.98 in 10.0 mi Variable 5.8 mph 18.4 mph N/A   Clear
8:53 PM 39.9 °F - 23.0 °F 51% 30.01 in 10.0 mi Calm Calm - N/A   Clear
9:53 PM 39.0 °F 34.8 °F 23.0 °F 53% 30.05 in 10.0 mi Variable 5.8 mph - N/A   Clear
10:53 PM 39.0 °F - 21.9 °F 50% 30.08 in 10.0 mi Calm Calm - N/A   Clear
11:53 PM 39.0 °F 32.8 °F 21.9 °F 50% 30.11 in 10.0 mi NW 9.2 mph - N/A   Clear